GW6277 Weather Reports


time (UTC)temp
C
wind
direction
speed
KPH
gust
KPH
rain 1hr
cm
rain 24hr
cm
rain mn
cm
humidity
%
barometer
mb
20260507031141 15 104 0.0 0.0 0.00 0.23 0.23 92 1004.8
20260507030638 15 38 3.2 3.2 0.00 0.23 0.23 93 1004.8
20260507030136 15 67 1.6 3.2 0.00 0.23 0.23 93 1004.8
20260507025633 15 104 0.0 0.0 0.00 0.23 0.23 92 1004.8
20260507025130 15 91 0.0 0.0 0.00 0.23 0.23 93 1004.8
20260507024628 15 86 1.6 1.6 0.00 0.23 0.23 93 1004.7
20260507024125 15 142 0.0 0.0 0.00 0.23 0.23 93 1004.5
20260507023620 15 145 0.0 0.0 0.00 0.23 0.23 93 1004.5
20260507023118 15 144 0.0 0.0 0.00 0.23 0.23 93 1004.6
20260507022615 15 104 0.0 0.0 0.00 0.23 0.23 93 1004.8
20260507022110 15 88 3.2 3.2 0.00 0.23 0.23 93 1004.8
20260507021606 15 138 0.0 0.0 0.00 0.23 0.23 93 1004.9
20260507021102 15 138 3.2 3.2 0.00 0.23 0.23 93 1004.7
20260507020601 15 146 0.0 0.0 0.00 0.23 0.23 93 1004.8
20260507020057 15 128 0.0 1.6 0.00 0.23 0.23 93 1004.6
20260507015556 15 129 0.0 0.0 0.00 0.23 0.23 93 1004.8
20260507015053 15 147 0.0 0.0 0.00 0.23 0.23 93 1004.7
20260507014549 15 171 1.6 1.6 0.00 0.23 0.23 93 1004.7
20260507014045 15 179 3.2 3.2 0.00 0.23 0.23 93 1004.9
20260507013542 15 133 0.0 0.0 0.00 0.23 0.23 93 1004.7
20260507013039 15 168 1.6 3.2 0.00 0.23 0.23 93 1004.6
20260507012536 15 137 0.0 0.0 0.00 0.23 0.23 93 1004.5
20260507012032 15 151 0.0 1.6 0.00 0.23 0.23 93 1004.7
20260507011530 15 156 1.6 1.6 0.00 0.23 0.23 93 1004.8
20260507011026 15 139 0.0 1.6 0.00 0.23 0.23 93 1004.9
20260507010520 15 172 1.6 3.2 0.00 0.23 0.23 93 1004.8
20260507010017 15 129 1.6 1.6 0.00 0.23 0.23 93 1005.0
20260507005514 15 157 1.6 1.6 0.00 0.23 0.23 93 1004.9
20260507005011 15 236 9.7 11.3 0.00 0.23 0.23 93 1004.8
20260507004508 15 70 3.2 3.2 0.00 0.23 0.23 93 1004.9
20260507004006 15 232 1.6 4.8 0.00 0.23 0.23 93 1004.9
20260507003500 15 147 0.0 0.0 0.00 0.23 0.23 93 1004.9
20260507002955 15 121 0.0 0.0 0.00 0.23 0.23 93 1004.7
20260507002453 15 156 1.6 1.6 0.00 0.23 0.23 93 1004.8
20260507001949 15 141 0.0 0.0 0.00 0.23 0.23 93 1004.9
20260507001446 15 172 1.6 3.2 0.00 0.23 0.23 93 1004.8
20260507000943 15 156 0.0 1.6 0.00 0.23 0.23 93 1004.8
20260507000439 15 207 3.2 4.8 0.00 0.23 0.23 93 1004.7
20260506235934 15 158 1.6 1.6 0.00 0.23 0.23 93 1004.6
20260506235432 15 151 0.0 0.0 0.00 0.23 0.23 93 1004.5
20260506234927 15 130 1.6 3.2 0.00 0.23 0.23 93 1004.4
20260506234425 15 137 0.0 0.0 0.00 0.23 0.23 93 1004.5
20260506233923 15 147 0.0 0.0 0.00 0.23 0.23 93 1004.5
20260506233419 15 188 4.8 9.7 0.00 0.23 0.23 93 1004.4
20260506232916 15 144 0.0 1.6 0.00 0.23 0.23 93 1004.7
20260506232412 15 118 0.0 0.0 0.00 0.23 0.23 93 1004.4
20260506231908 15 141 0.0 0.0 0.00 0.23 0.23 93 1004.2
20260506231406 15 147 1.6 1.6 0.00 0.23 0.23 93 1004.4
20260506230903 15 209 6.4 9.7 0.18 0.23 0.23 92 1004.4
20260506230359 15 205 3.2 11.3 0.18 0.23 0.23 92 1004.4
20260506225855 15 150 1.6 1.6 0.18 0.20 0.20 92 1004.5
20260506225353 15 145 1.6 3.2 0.18 0.20 0.20 92 1004.6
20260506224844 15 154 1.6 3.2 0.00 0.18 0.18 92 1004.5
20260506224342 15 142 1.6 3.2 0.00 0.18 0.18 91 1004.5
20260506223838 15 151 1.6 3.2 0.00 0.18 0.18 91 1004.4
20260506223333 15 154 0.0 0.0 0.00 0.18 0.18 92 1004.7
20260506222830 15 151 4.8 9.7 0.00 0.18 0.18 92 1004.5
20260506222325 15 122 0.0 0.0 0.00 0.18 0.18 92 1004.6
20260506221819 15 141 0.0 1.6 0.00 0.18 0.18 92 1004.6
20260506221316 15 175 3.2 3.2 0.00 0.18 0.18 91 1004.6
20260506220813 15 144 1.6 3.2 0.13 0.18 0.18 91 1004.8
20260506220313 15 144 1.6 3.2 0.13 0.18 0.18 91 1004.9
20260506215810 15 147 1.6 4.8 0.13 0.18 0.18 90 1004.8
20260506215306 15 161 1.6 1.6 0.00 0.15 0.15 90 1005.0
20260506214802 15 230 3.2 4.8 0.00 0.15 0.15 90 1004.9
20260506214259 15 147 0.0 1.6 0.00 0.15 0.15 90 1005.0
20260506213757 15 150 1.6 1.6 0.00 0.15 0.15 90 1005.0
20260506213254 15 131 0.0 0.0 0.00 0.15 0.15 90 1005.0
20260506212751 15 206 3.2 4.8 0.00 0.15 0.15 90 1005.1
20260506212247 15 137 0.0 1.6 0.00 0.15 0.15 90 1005.3
20260506211742 15 188 0.0 1.6 0.00 0.15 0.15 90 1005.1
20260506211239 15 201 1.6 3.2 0.00 0.15 0.15 89 1005.2
20260506210736 15 166 1.6 3.2 0.00 0.15 0.15 89 1005.2
20260506210233 15 141 1.6 1.6 0.00 0.15 0.15 89 1005.2
20260506205731 15 131 0.0 0.0 0.00 0.15 0.15 89 1005.3
20260506205226 15 133 1.6 1.6 0.00 0.15 0.15 89 1005.3
20260506204723 15 172 3.2 4.8 0.18 0.15 0.15 89 1005.3
20260506204220 15 152 1.6 1.6 0.18 0.15 0.15 89 1005.7
20260506203718 15 123 0.0 1.6 0.00 0.13 0.13 89 1005.7
20260506203215 15 133 0.0 0.0 0.00 0.13 0.13 88 1005.4
20260506202713 15 144 0.0 1.6 0.00 0.13 0.13 88 1005.5
20260506202209 15 210 6.4 9.7 0.00 0.13 0.13 88 1005.6
20260506201706 15 159 1.6 3.2 0.00 0.13 0.13 88 1005.6
20260506201202 15 138 1.6 1.6 0.00 0.13 0.13 88 1005.7
20260506200659 15 151 4.8 6.4 0.00 0.13 0.13 89 1005.8
20260506200156 15 170 1.6 1.6 0.00 0.13 0.13 89 1005.7
20260506195652 15 138 0.0 1.6 0.00 0.13 0.13 89 1005.5
20260506195149 15 214 1.6 4.8 0.00 0.13 0.13 89 1005.7
20260506194646 15 223 6.4 14.5 0.00 0.13 0.13 88 1005.6
20260506194142 15 202 4.8 4.8 0.00 0.13 0.13 88 1005.6
20260506193640 15 228 8.0 11.3 0.13 0.13 0.13 88 1005.9
20260506193137 15 137 4.8 6.4 0.30 0.13 0.13 87 1005.8
20260506192634 16 112 0.0 1.6 0.18 0.10 0.10 86 1005.7
20260506192130 16 152 1.6 1.6 0.13 0.08 0.08 84 1005.8
20260506191627 16 208 6.4 12.9 0.13 0.08 0.08 83 1005.7
20260506191122 16 229 6.4 6.4 0.18 0.05 0.05 84 1005.9
20260506190621 17 156 1.6 3.2 0.18 0.05 0.05 81 1005.9
20260506190117 17 147 0.0 1.6 0.00 0.03 0.03 80 1005.6
20260506185614 17 144 1.6 1.6 0.13 0.03 0.03 78 1005.7
20260506185110 17 209 6.4 12.9 0.13 0.03 0.03 76 1005.8
20260506184608 18 209 3.2 4.8 0.00 0.00 0.00 74 1005.9
20260506184106 18 156 1.6 1.6 0.00 0.00 0.00 72 1005.9
20260506183601 18 194 6.4 6.4 0.00 0.00 0.00 70 1006.0
20260506183058 18 146 1.6 1.6 0.00 0.00 0.00 69 1006.0
20260506182555 19 156 3.2 4.8 0.00 0.00 0.00 67 1006.1
20260506182052 20 143 1.6 1.6 0.00 0.00 0.00 66 1006.2
20260506181550 20 127 0.0 1.6 0.00 0.00 0.00 64 1006.2
20260506181047 20 163 3.2 4.8 0.00 0.00 0.00 62 1006.2
20260506180543 20 174 8.0 16.1 0.00 0.00 0.00 61 1006.0
20260506180040 20 194 3.2 4.8 0.00 0.00 0.00 60 1006.0
20260506175536 21 196 3.2 9.7 0.00 0.00 0.00 58 1006.1
20260506175033 21 137 1.6 3.2 0.00 0.00 0.00 58 1006.0
20260506174532 21 237 6.4 9.7 0.00 0.00 0.00 56 1006.1
20260506174027 21 185 3.2 3.2 0.00 0.00 0.00 55 1005.9
20260506173525 21 150 3.2 3.2 0.00 0.00 0.00 55 1006.1
20260506173022 21 188 6.4 6.4 0.00 0.00 0.00 54 1006.2
20260506172519 22 223 4.8 6.4 0.00 0.00 0.00 53 1006.2
20260506172015 22 209 11.3 22.5 0.00 0.00 0.00 53 1006.3
20260506171514 22 131 8.0 12.9 0.00 0.00 0.00 53 1006.2
20260506171011 22 135 0.0 1.6 0.00 0.00 0.00 54 1006.2
20260506170508 22 135 1.6 3.2 0.00 0.00 0.00 53 1006.2
20260506170005 22 120 3.2 3.2 0.00 0.00 0.00 54 1006.2
20260506165504 21 160 4.8 6.4 0.00 0.00 0.00 54 1006.3
20260506164959 22 248 8.0 11.3 0.00 0.00 0.00 54 1006.3
20260506164456 22 202 8.0 14.5 0.00 0.00 0.00 53 1006.3
20260506163954 22 144 1.6 1.6 0.00 0.00 0.00 55 1006.4
20260506163449 22 154 1.6 3.2 0.00 0.00 0.00 54 1006.4
20260506162944 22 223 11.3 17.7 0.00 0.00 0.00 53 1006.5
20260506162442 22 131 6.4 14.5 0.00 0.00 0.00 54 1006.8
20260506161939 22 214 3.2 4.8 0.00 0.00 0.00 54 1006.5
20260506161437 21 171 3.2 3.2 0.00 0.00 0.00 55 1006.8
20260506160934 21 145 6.4 6.4 0.00 0.00 0.00 55 1006.9
20260506160431 21 117 0.0 1.6 0.00 0.00 0.00 56 1007.1
20260506155929 21 181 6.4 6.4 0.00 0.00 0.00 56 1007.1
20260506155426 21 136 0.0 1.6 0.00 0.00 0.00 57 1007.1
20260506153548 21 115 3.2 3.2 0.00 0.00 0.00 59 1007.5
20260506153045 21 154 0.0 1.6 0.00 0.00 0.00 58 1007.6
20260506152542 21 146 1.6 1.6 0.00 0.00 0.00 57 1007.5
20260506152040 21 136 1.6 1.6 0.00 0.00 0.00 57 1007.8
20260506151538 21 150 1.6 3.2 0.00 0.00 0.00 57 1007.5
20260506151035 21 138 3.2 9.7 0.00 0.00 0.00 58 1007.6
20260506150531 21 144 3.2 4.8 0.00 0.00 0.00 58 1007.7
20260506150028 21 118 3.2 3.2 0.00 0.00 0.00 58 1007.7
20260506145525 21 221 4.8 9.7 0.00 0.00 0.00 57 1007.8
20260506145022 21 144 3.2 6.4 0.00 0.00 0.00 59 1007.7
20260506144519 21 147 1.6 3.2 0.00 0.00 0.00 60 1007.8
20260506144016 21 176 3.2 4.8 0.00 0.00 0.00 59 1007.6
20260506143514 21 147 1.6 3.2 0.00 0.00 0.00 61 1007.7
20260506143012 21 153 4.8 6.4 0.00 0.00 0.00 60 1007.7
20260506142509 20 127 1.6 3.2 0.00 0.00 0.00 62 1007.6
20260506142008 20 133 1.6 3.2 0.00 0.00 0.00 62 1007.8
20260506141505 20 140 1.6 3.2 0.00 0.00 0.00 62 1007.7
20260506141003 20 126 0.0 1.6 0.00 0.00 0.00 63 1007.8
20260506140500 20 112 4.8 6.4 0.00 0.00 0.00 65 1007.7
20260506135957 20 172 1.6 3.2 0.00 0.00 0.00 64 1007.8
20260506135454 20 141 1.6 3.2 0.00 0.00 0.00 66 1007.6
20260506134950 19 132 0.0 0.0 0.00 0.00 0.00 68 1008.0
20260506134446 19 131 3.2 3.2 0.00 0.00 0.00 65 1007.7
20260506133943 18 155 1.6 3.2 0.00 0.00 0.00 68 1008.0
20260506133440 19 217 11.3 17.7 0.00 0.00 0.00 66 1007.8
20260506132937 18 213 1.6 4.8 0.00 0.00 0.00 69 1008.1
20260506132434 18 160 1.6 1.6 0.00 0.00 0.00 69 1008.4
20260506131931 18 219 8.0 9.7 0.00 0.00 0.00 67 1008.4
20260506131428 18 205 1.6 4.8 0.00 0.00 0.00 69 1008.5
20260506130925 18 143 3.2 3.2 0.00 0.00 0.00 69 1008.3
20260506130421 18 209 6.4 6.4 0.00 0.00 0.00 69 1008.3
20260506125919 18 165 3.2 3.2 0.00 0.00 0.00 69 1008.4
20260506125417 18 141 0.0 0.0 0.00 0.00 0.00 70 1008.4
20260506124915 18 196 3.2 4.8 0.00 0.00 0.00 71 1008.3
20260506124412 18 160 1.6 1.6 0.00 0.00 0.00 71 1008.4
20260506123910 18 159 1.6 3.2 0.00 0.00 0.00 71 1008.4
20260506123408 17 124 0.0 0.0 0.00 0.00 0.00 72 1008.3
20260506122905 17 140 3.2 4.8 0.00 0.00 0.00 72 1008.3
20260506122402 17 224 1.6 6.4 0.00 0.00 0.00 72 1008.7
20260506121900 17 169 8.0 9.7 0.00 0.00 0.00 72 1008.6
20260506121357 17 38 3.2 3.2 0.00 0.00 0.00 74 1008.5
20260506120853 17 138 0.0 1.6 0.00 0.00 0.00 74 1008.5
20260506120351 17 158 0.0 1.6 0.00 0.00 0.00 74 1008.5
20260506115849 17 184 9.7 9.7 0.00 0.00 0.00 73 1008.4
20260506115347 17 155 3.2 4.8 0.00 0.00 0.00 74 1008.5
20260506114844 17 124 1.6 1.6 0.00 0.00 0.00 74 1008.5
20260506114342 16 204 8.0 9.7 0.00 0.00 0.00 75 1008.5
20260506113841 16 132 0.0 0.0 0.00 0.00 0.00 77 1008.6
20260506113338 16 177 1.6 3.2 0.00 0.00 0.00 77 1008.7
20260506112834 16 141 1.6 1.6 0.00 0.00 0.00 77 1008.8
20260506112331 16 225 4.8 9.7 0.00 0.00 0.00 77 1009.0
20260506111829 16 99 1.6 1.6 0.00 0.00 0.00 77 1008.9
20260506111327 16 142 0.0 0.0 0.00 0.00 0.00 78 1009.1
20260506110824 16 133 0.0 0.0 0.00 0.00 0.00 78 1008.9
20260506110321 16 142 0.0 0.0 0.00 0.00 0.00 78 1008.7
20260506105818 16 220 6.4 11.3 0.00 0.00 0.00 78 1008.8
20260506105314 15 147 6.4 6.4 0.00 0.00 0.00 78 1008.7
20260506104812 15 153 0.0 0.0 0.00 0.00 0.00 79 1008.7
20260506104310 15 150 0.0 1.6 0.00 0.00 0.00 80 1008.8
20260506103807 15 128 0.0 0.0 0.00 0.00 0.00 80 1008.7
20260506103304 15 132 0.0 0.0 0.00 0.00 0.00 80 1008.6
20260506102801 15 132 0.0 0.0 0.00 0.00 0.00 80 1008.7
20260506102259 15 148 0.0 0.0 0.00 0.00 0.00 80 1008.8
20260506101757 15 163 1.6 1.6 0.00 0.00 0.00 80 1008.9
20260506101252 15 131 1.6 1.6 0.00 0.00 0.00 80 1008.6
20260506100750 15 132 0.0 0.0 0.00 0.00 0.00 80 1008.8
20260506100248 15 222 4.8 6.4 0.00 0.00 0.00 81 1008.6
20260506095747 15 137 0.0 0.0 0.00 0.00 0.00 80 1008.7
20260506095243 15 130 0.0 0.0 0.00 0.00 0.00 80 1008.7
20260506094740 15 158 4.8 4.8 0.00 0.00 0.00 80 1008.8
20260506094238 15 130 0.0 0.0 0.00 0.00 0.00 80 1008.4
20260506093737 15 146 1.6 1.6 0.00 0.00 0.00 80 1008.3
20260506093233 15 143 0.0 1.6 0.00 0.00 0.00 80 1008.5
20260506092731 15 112 0.0 0.0 0.00 0.00 0.00 79 1008.6
20260506092229 15 107 0.0 0.0 0.00 0.00 0.00 79 1008.6
20260506091726 15 137 0.0 0.0 0.00 0.00 0.00 79 1008.5
20260506091223 15 140 0.0 1.6 0.00 0.00 0.00 79 1008.4
20260506090721 15 107 0.0 0.0 0.00 0.00 0.00 79 1008.5
20260506090218 15 141 3.2 6.4 0.00 0.00 0.00 79 1008.5
20260506085715 15 151 1.6 3.2 0.00 0.00 0.00 79 1008.5
20260506085211 15 144 0.0 0.0 0.00 0.00 0.00 78 1008.7
20260506084708 15 111 0.0 0.0 0.00 0.00 0.00 78 1008.7
20260506084204 15 164 1.6 3.2 0.00 0.00 0.00 78 1008.8
20260506083701 15 119 0.0 0.0 0.00 0.00 0.00 78 1008.7
20260506083159 15 156 4.8 6.4 0.00 0.00 0.00 78 1008.7
20260506082656 15 135 0.0 0.0 0.00 0.00 0.00 77 1008.6
20260506082156 15 193 1.6 3.2 0.00 0.00 0.00 77 1008.7
20260506081654 15 145 0.0 1.6 0.00 0.00 0.00 76 1008.7
20260506081152 15 141 0.0 0.0 0.00 0.00 0.00 76 1008.8
20260506080650 15 143 0.0 0.0 0.00 0.00 0.00 76 1008.7
20260506080146 15 143 1.6 1.6 0.00 0.00 0.00 75 1008.8
20260506073130 16 145 3.2 3.2 0.00 0.00 0.00 73 1008.6
20260506072626 16 117 0.0 0.0 0.00 0.00 0.00 73 1008.4
20260506072125 16 137 0.0 0.0 0.00 0.00 0.00 73 1008.5
20260506071622 16 177 4.8 6.4 0.00 0.00 0.00 73 1008.5
20260506071119 16 147 0.0 0.0 0.00 0.00 0.00 72 1008.5
20260506070616 16 207 4.8 6.4 0.00 0.00 0.00 72 1008.4
20260506070114 16 245 6.4 9.7 0.00 0.00 0.00 72 1008.5
20260506062050 16 91 6.4 11.3 0.00 0.00 0.00 69 1008.4
20260506061546 17 127 0.0 0.0 0.00 0.00 0.00 68 1008.5
20260506061044 17 139 0.0 1.6 0.00 0.00 0.00 68 1008.3
20260506060543 17 127 3.2 4.8 0.00 0.00 0.00 67 1008.6
20260506051011 17 131 1.6 1.6 0.00 0.00 0.00 65 1008.4
20260506050509 17 133 0.0 0.0 0.00 0.00 0.00 64 1008.6
20260506044959 17 232 1.6 3.2 0.00 0.00 0.00 63 1008.6
20260506044458 17 125 0.0 1.6 0.00 0.00 0.00 63 1008.8
20260506043954 17 127 0.0 1.6 0.00 0.00 0.00 63 1008.6
20260506043451 17 116 0.0 0.0 0.00 0.00 0.00 63 1008.8
20260506042949 17 140 4.8 4.8 0.00 0.00 0.00 62 1008.8
20260506042448 17 138 0.0 0.0 0.00 0.00 0.00 63 1008.7
20260506041946 17 208 9.7 11.3 0.00 0.00 0.00 62 1008.7
20260506041443 17 143 0.0 1.6 0.00 0.00 0.00 62 1008.7
20260506040941 17 158 0.0 1.6 0.00 0.00 0.00 63 1008.8
20260506040438 17 151 1.6 3.2 0.00 0.00 0.00 63 1008.7
20260506035934 17 121 1.6 3.2 0.00 0.00 0.00 63 1008.7
20260506035431 17 123 0.0 0.0 0.00 0.00 0.00 63 1008.7
20260506034928 17 142 0.0 0.0 0.00 0.00 0.00 63 1008.8
20260506034425 17 143 0.0 1.6 0.00 0.00 0.00 62 1008.5
20260506033922 17 139 0.0 0.0 0.00 0.00 0.00 63 1008.7
20260506033420 17 143 0.0 0.0 0.00 0.00 0.00 63 1008.8
20260506032916 17 96 0.0 1.6 0.00 0.00 0.00 63 1008.7
20260506032413 17 93 1.6 1.6 0.00 0.00 0.00 63 1008.6
20260506031910 17 140 3.2 4.8 0.00 0.00 0.00 62 1008.4
20260506031407 17 125 0.0 0.0 0.00 0.00 0.00 63 1008.7